�N����,����,�g�[���i�����r���O�j���x,�g�[�����x,��g�[���i���ցj���x,����
 2004/04/01, 0:00,17.8,44.5,15.7,16.1
 2004/04/01, 0:15,17.5,45,15.6,16
 2004/04/01, 0:30,17.5,44.8,15.5,16
 2004/04/01, 0:45,17.3,45.1,15.3,16
 2004/04/01, 1:00,17.2,45.1,15.3,16
 2004/04/01, 1:15,17,45.3,15.1,16
 2004/04/01, 1:30,16.9,45.3,15,16
 2004/04/01, 1:45,16.8,45.5,15,15.9
 2004/04/01, 2:00,16.6,45.6,14.8,15.9
 2004/04/01, 2:15,16.5,45.7,14.7,14.2
 2004/04/01, 2:30,16.4,45.6,14.8,14.2
 2004/04/01, 2:45,16.2,45.8,14.6,14.2
 2004/04/01, 3:00,16.1,45.5,14.5,14.2
 2004/04/01, 3:15,16,45.5,14.4,14.2
 2004/04/01, 3:30,15.9,45.3,14.3,14.2
 2004/04/01, 3:45,15.8,45.6,14.2,14.1
 2004/04/01, 4:00,15.7,45.4,14.1,14.1
 2004/04/01, 4:15,15.6,45.5,14,14.1
 2004/04/01, 4:30,15.5,45.4,14,14.1
 2004/04/01, 4:45,15.4,45.7,13.8,14.1
 2004/04/01, 5:00,15.3,45.3,13.8,14
 2004/04/01, 5:15,15.2,45.5,13.6,14
 2004/04/01, 5:30,15.1,45.3,13.5,14
 2004/04/01, 5:45,15,45.6,13.4,14
 2004/04/01, 6:00,14.9,45.2,13.5,14
 2004/04/01, 6:15,14.8,45.6,13.3,14
 2004/04/01, 6:30,14.8,45.5,13.3,14
 2004/04/01, 6:45,15,46.2,13.1,14
 2004/04/01, 7:00,14.8,47.5,13.1,14
 2004/04/01, 7:15,14.7,47.4,13.1,14
 2004/04/01, 7:30,14.7,46.9,12.9,14
 2004/04/01, 7:45,14.7,46.9,12.9,13.8
 2004/04/01, 8:00,15,50.8,13.1,12.9
 2004/04/01, 8:15,15.3,49.7,13.3,12.9
 2004/04/01, 8:30,15.7,51,13.3,13
 2004/04/01, 8:45,16.2,51.8,13.2,13
 2004/04/01, 9:00,16.6,52.2,13.3,13
 2004/04/01, 9:15,17,51.4,13.4,13.1
 2004/04/01, 9:30,16.8,52.8,14.7,13.1
 2004/04/01, 9:45,16.8,52.8,15.5,13.1
 2004/04/01,10:00,17.2,51.7,15.8,13.2
 2004/04/01,10:15,17.4,53.8,16.3,13.2
 2004/04/01,10:30,17.7,50.4,16.4,13.2
 2004/04/01,10:45,17.8,45.5,16.6,13.2
 2004/04/01,11:00,17.9,49.1,16.9,13.3
 2004/04/01,11:15,18.4,47.3,16.5,13.3
 2004/04/01,11:30,18.8,46.7,15.9,13.4
 2004/04/01,11:45,18.8,45.9,15.8,13.4
 2004/04/01,12:00,18.7,44.8,17.3,13.5
 2004/04/01,12:15,19,43.4,17,13.5
 2004/04/01,12:30,19.2,42.7,17.9,13.6
 2004/04/01,12:45,19.3,42.2,18.2,13.6
 2004/04/01,13:00,19.2,40.8,18.3,13.6
 2004/04/01,13:15,19.5,40.7,18.2,13.7
 2004/04/01,13:30,19.8,39.8,17.6,13.8
 2004/04/01,13:45,20.1,39.4,17.5,13.8
 2004/04/01,14:00,20.6,39.7,17.3,13.9
 2004/04/01,14:15,20.1,38.2,18.6,14
 2004/04/01,14:30,20.4,37.3,18.6,14
 2004/04/01,14:45,21,35.2,18.3,14.1
 2004/04/01,15:00,21.3,35.4,17.9,14.2
 2004/04/01,15:15,21.2,35.1,17.9,14.2
 2004/04/01,15:30,20.6,37.1,18.6,14.3
 2004/04/01,15:45,20.5,37.3,18.6,14.4
 2004/04/01,16:00,20.5,37.7,18.5,14.5
 2004/04/01,16:15,20.4,38.3,18.3,14.6
 2004/04/01,16:30,20.5,38.5,18.2,14.6
 2004/04/01,16:45,20.9,38.8,18,14.7
 2004/04/01,17:00,20.8,39.5,18.1,14.8
 2004/04/01,17:15,20.6,40.8,18.3,15
 2004/04/01,17:30,20.7,37.3,18.1,14.3
 2004/04/01,17:45,20.9,42.2,17.9,14.5
 2004/04/01,18:00,21,45.9,17.9,14.6
 2004/04/01,18:15,21.1,46.2,17.9,14.8
 2004/04/01,18:30,21.7,49.9,17.6,14.9
 2004/04/01,18:45,21.7,47.9,17.6,14.9
 2004/04/01,19:00,21.5,48,17.7,15
 2004/04/01,19:15,21.1,46.1,17.6,15.1
 2004/04/01,19:30,21.3,43.7,17.6,15.2
 2004/04/01,19:45,21.2,42.8,17.5,15.3
 2004/04/01,20:00,21.2,41.1,17.5,15.4
 2004/04/01,20:15,20.9,41.6,17.6,15.4
 2004/04/01,20:30,21.2,43.5,18.1,15.5
 2004/04/01,20:45,21.1,46.2,18.6,15.5
 2004/04/01,21:00,21.5,46.2,18.5,15.6
 2004/04/01,21:15,21.7,45.5,17.9,15.6
 2004/04/01,21:30,21.8,45.4,17.7,15.7
 2004/04/01,21:45,21.8,45,17.6,15.7
 2004/04/01,22:00,21.9,44.9,17.5,15.7
 2004/04/01,22:15,21.1,44.2,18.2,14.8
 2004/04/01,22:30,20.7,44.3,18.3,14.9
 2004/04/01,22:45,20.5,44.1,18.2,15.1
 2004/04/01,23:00,20.4,43.9,18,15.2
 2004/04/01,23:15,20.2,44,18,15.3
 2004/04/01,23:30,20,43.9,17.9,15.4
 2004/04/01,23:45,19.8,44,17.7,15.4
 2004/04/02, 0:00,19.7,43.9,17.6,15.5
 2004/04/02, 0:15,19.6,43.9,17.5,15.5
 2004/04/02, 0:30,19.5,44.2,17.4,15.6
 2004/04/02, 0:45,19.5,44.3,17.2,15.6
 2004/04/02, 1:00,19.3,45.1,17.1,15.7
 2004/04/02, 1:15,19.2,45.5,17.1,15.7
 2004/04/02, 1:30,19.1,45.7,17,15.7
 2004/04/02, 1:45,19,45.9,16.9,15.8
 2004/04/02, 2:00,19,45.8,16.8,15.8
 2004/04/02, 2:15,18.9,46.1,16.7,15.8
 2004/04/02, 2:30,18.8,46.3,16.7,13.9
 2004/04/02, 2:45,18.8,46.4,16.7,14.1
 2004/04/02, 3:00,18.7,46.8,16.6,14.2
 2004/04/02, 3:15,18.6,47,16.6,14.3
 2004/04/02, 3:30,18.6,47,16.5,14.4
 2004/04/02, 3:45,18.4,47.3,16.4,14.4
 2004/04/02, 4:00,18.4,47.1,16.4,14.5
 2004/04/02, 4:15,18.3,47.5,16.3,14.5
 2004/04/02, 4:30,18.2,47.4,16.3,14.6
 2004/04/02, 4:45,18.2,47.5,16.2,14.6
 2004/04/02, 5:00,18.1,47.5,16.2,14.7
 2004/04/02, 5:15,18,47.9,16.1,14.7
 2004/04/02, 5:30,18,47.5,16,14.7
 2004/04/02, 5:45,17.9,47.8,16,14.7
 2004/04/02, 6:00,17.9,47.7,15.9,14.8
 2004/04/02, 6:15,17.8,48.1,15.9,14.8
 2004/04/02, 6:30,17.8,48,15.9,14.8
 2004/04/02, 6:45,17.7,48.4,15.8,14.8
 2004/04/02, 7:00,17.8,48,15.8,14.9
 2004/04/02, 7:15,17.6,48.6,15.8,14.9
 2004/04/02, 7:30,17.6,48.6,15.7,13.9
 2004/04/02, 7:45,17.6,49,15.6,14.1
 2004/04/02, 8:00,17.8,49.8,15.7,13.5
 2004/04/02, 8:15,18.6,55.2,15.8,13.7
 2004/04/02, 8:30,18.4,55.6,15.8,13.8
 2004/04/02, 8:45,19,54.6,15.8,13.9
 2004/04/02, 9:00,18.9,56.2,15.8,14
 2004/04/02, 9:15,19.4,55.7,15.8,14.1
 2004/04/02, 9:30,19.6,55.4,15.8,14.1
 2004/04/02, 9:45,19.7,54.9,15.9,14.2
 2004/04/02,10:00,19.9,55.1,16.1,14.3
 2004/04/02,10:15,20,55,16.2,14.3
 2004/04/02,10:30,20.6,53.6,16.4,14.4
 2004/04/02,10:45,21.2,53.1,16.6,14.4
 2004/04/02,11:00,20.6,53.9,18.3,14.5
 2004/04/02,11:15,20.9,53.6,19.1,14.6
 2004/04/02,11:30,21.2,52.8,19.4,14.6
 2004/04/02,11:45,21.1,53,19.7,14.7
 2004/04/02,12:00,21.4,53.2,19.8,14.8
 2004/04/02,12:15,21.6,52.1,19.8,14.9
 2004/04/02,12:30,21.7,49.9,20,14.9
 2004/04/02,12:45,21.7,49.3,20.2,15
 2004/04/02,13:00,21.8,48.7,20.2,15.1
 2004/04/02,13:15,21.8,48.4,20.2,15.2
 2004/04/02,13:30,21.9,48,20.2,15.2
 2004/04/02,13:45,21.9,48,20.2,15.3
 2004/04/02,14:00,22,47.6,20.2,15.4
 2004/04/02,14:15,22,47.5,20.2,15.5
 2004/04/02,14:30,22,47.4,20.2,15.6
 2004/04/02,14:45,22,47.1,20,15.7
 2004/04/02,15:00,22,47,20,15.7
 2004/04/02,15:15,22,46.9,20,15.8
 2004/04/02,15:30,22.1,46.8,19.9,15.9
 2004/04/02,15:45,22,46.8,19.9,16
 2004/04/02,16:00,22,46.8,19.8,16.1
 2004/04/02,16:15,21.9,46.6,19.6,16.2
 2004/04/02,16:30,21.9,46.4,19.5,16.2
 2004/04/02,16:45,21.8,46.4,19.4,16.3
 2004/04/02,17:00,21.8,46.5,19.4,16.4
 2004/04/02,17:15,22.1,45.7,19.4,16.4
 2004/04/02,17:30,21.9,46.5,19.4,16.5
 2004/04/02,17:45,21.8,45.9,19.3,16.6
 2004/04/02,18:00,21.7,46,19.2,16.6
 2004/04/02,18:15,21.5,46.4,19.1,16.6
 2004/04/02,18:30,21.8,46.1,19.2,16.7
 2004/04/02,18:45,22.1,48.2,19.2,16.7
 2004/04/02,19:00,22.4,53.5,19.1,16.8
 2004/04/02,19:15,22.6,55.9,19,16.8
 2004/04/02,19:30,22.7,57.3,19,16.8
 2004/04/02,19:45,22.4,46.2,19,16.9
 2004/04/02,20:00,22.4,39,19,16.9
 2004/04/02,20:15,22.3,38.2,18.9,16.9
 2004/04/02,20:30,22.7,42.2,18.8,16.9
 2004/04/02,20:45,22.7,44,18.8,17
 2004/04/02,21:00,22.7,45.5,18.8,17
 2004/04/02,21:15,22.7,47.6,18.7,17
 2004/04/02,21:30,22.4,47.7,19.4,17
 2004/04/02,21:45,21.9,48.3,19.4,17
 2004/04/02,22:00,21.5,48.6,19.4,17
 2004/04/02,22:15,21.3,48.8,19.4,17.1
 2004/04/02,22:30,21.2,48.6,19.3,17.1
 2004/04/02,22:45,21,48.6,19.1,17.1
 2004/04/02,23:00,20.9,48.4,19.1,17.1
 2004/04/02,23:15,21.5,47.4,18.6,17.1
 2004/04/02,23:30,21.6,49.6,18.3,17.1
 2004/04/02,23:45,21.4,50,18.3,17.1
 2004/04/03, 0:00,21.2,49,18.3,17
 2004/04/03, 0:15,20.4,50,18.6,17
 2004/04/03, 0:30,20.3,49.6,18.4,17
 2004/04/03, 0:45,20.1,50.9,18.4,17
 2004/04/03, 1:00,20,51.3,18.3,17
 2004/04/03, 1:15,19.8,51.2,18.2,17
 2004/04/03, 1:30,19.7,50.8,18,17
 2004/04/03, 1:45,19.6,50.2,17.9,17
 2004/04/03, 2:00,19.5,50,17.7,15.4
 2004/04/03, 2:15,19.3,50.1,17.5,15.4
 2004/04/03, 2:30,19.2,49.8,17.4,15.4
 2004/04/03, 2:45,19,49.7,17.2,15.4
 2004/04/03, 3:00,18.9,49.3,17.1,15.5
 2004/04/03, 3:15,18.8,49.3,17,15.5
 2004/04/03, 3:30,18.7,48.9,16.8,15.5
 2004/04/03, 3:45,18.6,49,16.7,15.5
 2004/04/03, 4:00,18.5,49.1,16.6,15.5
 2004/04/03, 4:15,18.3,49,16.5,15.5
 2004/04/03, 4:30,18.3,48.9,16.4,15.5
 2004/04/03, 4:45,18.2,48.9,16.3,15.5
 2004/04/03, 5:00,18,49,16.2,15.5
 2004/04/03, 5:15,17.9,48.8,16,15.5
 2004/04/03, 5:30,17.8,48.9,16,15.5
 2004/04/03, 5:45,17.7,48.5,15.9,15.5
 2004/04/03, 6:00,17.6,48.9,15.8,15.5
 2004/04/03, 6:15,17.5,48.7,15.6,15.5
 2004/04/03, 6:30,17.4,49,15.5,15.4
 2004/04/03, 6:45,17.3,48.6,15.5,15.4
 2004/04/03, 7:00,17.2,49,15.4,15.4
 2004/04/03, 7:15,17.2,48.9,15.3,14.2
 2004/04/03, 7:30,17.1,49.4,15.3,13.5
 2004/04/03, 7:45,17.2,50.3,15.3,13.4
 2004/04/03, 8:00,17.3,52.3,15.3,13.6
 2004/04/03, 8:15,17.9,55.9,15.5,13.6
 2004/04/03, 8:30,17.9,57.1,15.5,13.7
 2004/04/03, 8:45,18.6,55.6,15.5,13.8
 2004/04/03, 9:00,18.6,55.5,15.6,13.8
 2004/04/03, 9:15,18.6,55.8,16.4,13.9
 2004/04/03, 9:30,18.5,56.2,16.8,14
 2004/04/03, 9:45,18.6,56,17.1,14
 2004/04/03,10:00,18.7,55.5,17.4,14.1
 2004/04/03,10:15,18.9,55,17.6,14.1
 2004/04/03,10:30,19.1,54.5,17.8,14.2
 2004/04/03,10:45,19.2,54.2,18,14.2
 2004/04/03,11:00,19.3,54,18.2,14.3
 2004/04/03,11:15,19.5,53.3,18.3,14.3
 2004/04/03,11:30,19.7,53,18.4,14.4
 2004/04/03,11:45,19.7,52.7,18.6,14.4
 2004/04/03,12:00,19.9,52.4,18.6,14.5
 2004/04/03,12:15,20.3,50.9,18.4,14.6
 2004/04/03,12:30,20.6,48.2,18.6,14.6
 2004/04/03,12:45,21.2,48.5,18.3,14.7
 2004/04/03,13:00,21.4,50.8,18.2,14.7
 2004/04/03,13:15,21.8,51.1,18,14.8
 2004/04/03,13:30,21.9,51.1,18.1,14.9
 2004/04/03,13:45,22,43.8,18.1,14.9
 2004/04/03,14:00,22.1,38.3,18.2,15
 2004/04/03,14:15,22.1,43.3,18.2,15.1
 2004/04/03,14:30,22.1,44.1,18.2,15.2
 2004/04/03,14:45,22,43,18.2,15.2
 2004/04/03,15:00,22.1,40.7,18.3,15.3
 2004/04/03,15:15,22.1,40.1,18.4,15.4
 2004/04/03,15:30,21.8,43.4,18.8,15.5
 2004/04/03,15:45,21.9,44.2,19.1,15.6
 2004/04/03,16:00,21.6,45.8,19.1,15.6
 2004/04/03,16:15,21.5,46.5,19,15.7
 2004/04/03,16:30,21.4,46.9,18.9,15.8
 2004/04/03,16:45,21.3,47.5,18.8,15.9
 2004/04/03,17:00,21.3,47.8,18.7,15.9
 2004/04/03,17:15,21.1,48.3,18.6,16
 2004/04/03,17:30,21,48.4,18.6,16.1
 2004/04/03,17:45,20.9,48.8,18.5,16.2
 2004/04/03,18:00,20.8,48.7,18.4,16.2
 2004/04/03,18:15,21.1,50.3,18.3,16.3
 2004/04/03,18:30,21.9,59.7,18.2,16.3
 2004/04/03,18:45,21.8,57.8,18.2,16.3
 2004/04/03,19:00,22.1,56.2,18.2,16.4
 2004/04/03,19:15,21.9,52.1,18.1,16.4
 2004/04/03,19:30,22.4,52.3,18.6,16.4
 2004/04/03,19:45,22.3,53,18.3,16.5
 2004/04/03,20:00,22.7,52.2,18.1,16.5
 2004/04/03,20:15,22.4,51.6,18,16.5
 2004/04/03,20:30,21.9,50.9,18.3,16.6
 2004/04/03,20:45,22.3,51.9,18,16.6
 2004/04/03,21:00,21.9,50.5,18.9,16.6
 2004/04/03,21:15,22.2,51.6,18.3,16.6
 2004/04/03,21:30,22.4,52.5,18.3,16.6
 2004/04/03,21:45,21.7,53.6,19.1,16.6
 2004/04/03,22:00,21.3,54.8,19.1,16.7
 2004/04/03,22:15,22,54.4,18.6,16.7
 2004/04/03,22:30,22.2,54.2,18.2,16.7
 2004/04/03,22:45,22.1,54.1,18,16.7
 2004/04/03,23:00,21.2,53.6,18.6,16.7
 2004/04/03,23:15,20.8,53.7,18.7,16.8
 2004/04/03,23:30,20.6,53.4,18.6,16.8
 2004/04/03,23:45,20.5,53.1,18.5,16.8
 2004/04/04, 0:00,20.3,53,18.3,15.4
 2004/04/04, 0:15,20.1,52.9,18.2,15.5
 2004/04/04, 0:30,19.9,52.8,18.1,15.6
 2004/04/04, 0:45,19.8,52.7,18,15.6
 2004/04/04, 1:00,19.7,52.7,17.8,14.2
 2004/04/04, 1:15,19.6,52.7,17.7,14.3
 2004/04/04, 1:30,19.5,52.7,17.6,14.4
 2004/04/04, 1:45,19.4,52.5,17.5,14.5
 2004/04/04, 2:00,19.3,52.6,17.4,14.6
 2004/04/04, 2:15,19.2,52.4,17.3,14.7
 2004/04/04, 2:30,19.1,52.4,17.2,14.7
 2004/04/04, 2:45,19,52.2,17.1,14.8
 2004/04/04, 3:00,18.9,52.2,17,14.8
 2004/04/04, 3:15,18.8,52.2,16.9,14.8
 2004/04/04, 3:30,18.7,52.2,16.8,14.9
 2004/04/04, 3:45,18.7,52.1,16.7,14.9
 2004/04/04, 4:00,18.5,52.6,16.6,14.9
 2004/04/04, 4:15,18.5,52.3,16.6,15
 2004/04/04, 4:30,18.4,52.4,16.4,15
 2004/04/04, 4:45,18.3,52.3,16.4,15
 2004/04/04, 5:00,18.2,52.3,16.3,15
 2004/04/04, 5:15,18.1,52.1,16.2,15.1
 2004/04/04, 5:30,18.1,52.6,16.2,15.1
 2004/04/04, 5:45,18,52.2,16.1,15.1
 2004/04/04, 6:00,17.9,52.3,16,15.1
 2004/04/04, 6:15,17.8,52.2,15.9,13.8
 2004/04/04, 6:30,17.8,52.5,15.9,14
 2004/04/04, 6:45,17.7,52.6,15.8,14.1
 2004/04/04, 7:00,17.7,52.3,15.8,14.2
 2004/04/04, 7:15,17.6,52.6,15.7,14.2
 2004/04/04, 7:30,17.5,52.8,15.6,14.3
 2004/04/04, 7:45,17.5,52.7,15.7,14.3
 2004/04/04, 8:00,17.4,52.7,15.5,13.7
 2004/04/04, 8:15,17.3,52.7,15.5,13.8
 2004/04/04, 8:30,17.2,53.3,15.4,13.9
 2004/04/04, 8:45,17.2,53.1,15.3,14
 2004/04/04, 9:00,17.1,53.4,15.4,14
 2004/04/04, 9:15,17.1,53.2,15.2,14.1
 2004/04/04, 9:30,17.9,57,15.2,14.1
 2004/04/04, 9:45,18.2,60,15.2,14.1
 2004/04/04,10:00,18.3,59.8,15.1,14.2
 2004/04/04,10:15,18.4,59.4,15.1,13.9
 2004/04/04,10:30,18.4,58.2,15.5,13.6
 2004/04/04,10:45,18.4,58.6,15.2,13.7
 2004/04/04,11:00,18.4,54.9,15.6,13.8
 2004/04/04,11:15,18.3,54.8,15.8,13.9
 2004/04/04,11:30,18.5,54.6,15.3,13.9
 2004/04/04,11:45,18.6,54.3,15.3,14
 2004/04/04,12:00,18.5,53.7,15.3,13.4
 2004/04/04,12:15,18.2,53.7,15.2,13.5
 2004/04/04,12:30,18.3,53,15.1,13.5
 2004/04/04,12:45,18.3,52.8,15.4,13.6
 2004/04/04,13:00,18.3,53,15.5,13.6
 2004/04/04,13:15,18.5,54.3,15.5,13.7
 2004/04/04,13:30,18.4,55,15.5,13.7
 2004/04/04,13:45,18.2,55.2,15.3,13.8
 2004/04/04,14:00,18.2,55.3,15.2,13.8
 2004/04/04,14:15,18,54.5,15.5,13.3
 2004/04/04,14:30,18.7,54,15.3,13.4
 2004/04/04,14:45,18.5,54.8,15.3,13.4
 2004/04/04,15:00,18.4,54.3,15.6,13.5
 2004/04/04,15:15,18.1,53.5,15.5,13.5
 2004/04/04,15:30,17.9,53.8,15.4,13.6
 2004/04/04,15:45,17.8,53.4,15.3,13.6
 2004/04/04,16:00,17.7,53.5,15.3,13.6
 2004/04/04,16:15,17.7,54.2,15.3,13.7
 2004/04/04,16:30,17.6,54.5,15.3,13.7
 2004/04/04,16:45,17.6,54.3,15.2,13.8
 2004/04/04,17:00,17.5,54.2,15.2,13.8
 2004/04/04,17:15,17.4,54,15.1,13.8
 2004/04/04,17:30,17.2,54.1,15,13.8
 2004/04/04,17:45,17.2,53.8,14.9,13.9
 2004/04/04,18:00,17.1,53.8,14.9,13.9
 2004/04/04,18:15,17,53.8,14.9,13.9
 2004/04/04,18:30,16.8,54,14.7,13.9
 2004/04/04,18:45,16.8,53.8,14.6,13.9
 2004/04/04,19:00,16.6,53.7,14.5,13.9
 2004/04/04,19:15,16.6,53.7,14.5,13.9
 2004/04/04,19:30,16.5,53.5,14.5,13.9
 2004/04/04,19:45,16.5,53.4,14.3,13.9
 2004/04/04,20:00,16.4,53.3,14.2,13.9
 2004/04/04,20:15,16.3,53.4,14.2,13.9
 2004/04/04,20:30,16.2,53.2,14.1,13.9
 2004/04/04,20:45,16.7,53.6,14.1,13.9
 2004/04/04,21:00,17,54,14.1,13.9
 2004/04/04,21:15,17,53.8,14,13.9
 2004/04/04,21:30,16.9,54.9,14.1,13.9
 2004/04/04,21:45,17,55.6,14,13.9
 2004/04/04,22:00,16.9,57.1,14,13.8
 2004/04/04,22:15,16.4,57.1,14.1,13.8
 2004/04/04,22:30,16.9,57.3,13.9,13.8
 2004/04/04,22:45,16.9,57.2,13.8,13.8
 2004/04/04,23:00,16.9,56.9,13.7,13.8
 2004/04/04,23:15,16.9,56.8,13.6,13.8
 2004/04/04,23:30,17,56,13.5,13.8
 2004/04/04,23:45,16.8,55.9,13.4,13.8
 2004/04/05, 0:00,16.8,55.2,13.4,13.8
 2004/04/05, 0:15,16.7,55.2,13.3,13.8
 2004/04/05, 0:30,16.2,54,13.6,13.8
 2004/04/05, 0:45,16,53.8,13.8,13.8
 2004/04/05, 1:00,15.8,53.7,13.7,13.7
 2004/04/05, 1:15,15.6,53.7,13.6,13.7
 2004/04/05, 1:30,15.4,53.6,13.4,13.7
 2004/04/05, 1:45,15.3,53.7,13.3,13.7
 2004/04/05, 2:00,15.1,53.8,13.3,13.7
 2004/04/05, 2:15,15,53.7,13.1,13.7
 2004/04/05, 2:30,14.8,53.7,13,13.6
 2004/04/05, 2:45,14.7,53.8,13,13.6
 2004/04/05, 3:00,14.6,53.6,12.8,13.6
 2004/04/05, 3:15,14.6,53.7,12.7,13.6
 2004/04/05, 3:30,14.4,53.6,12.7,13.6
 2004/04/05, 3:45,14.4,53.5,12.6,13.6
 2004/04/05, 4:00,14.3,53.7,12.6,13.6
 2004/04/05, 4:15,14.2,53.8,12.4,13.5
 2004/04/05, 4:30,14.1,53.6,12.3,13.5
 2004/04/05, 4:45,14.1,53.7,12.3,13.5
 2004/04/05, 5:00,14,53.6,12.2,13.5
 2004/04/05, 5:15,13.9,53.8,12.2,13.5
 2004/04/05, 5:30,13.8,53.6,12,13.4
 2004/04/05, 5:45,13.8,53.6,12,13.4
 2004/04/05, 6:00,13.8,55.1,12,13.4
 2004/04/05, 6:15,13.7,54.8,11.9,13.4
 2004/04/05, 6:30,14.2,57.2,12,13.4
 2004/04/05, 6:45,14.5,56.8,11.9,13.4
 2004/04/05, 7:00,14.6,56.9,12,13.3
 2004/04/05, 7:15,14.7,56.6,11.9,13.3
 2004/04/05, 7:30,14.8,56.4,12,13.3
 2004/04/05, 7:45,14.9,56,12,12.8
 2004/04/05, 8:00,15.2,56.8,12,12.8
 2004/04/05, 8:15,15.5,57.2,12.1,12.8
 2004/04/05, 8:30,15.8,57.1,12,12.8
 2004/04/05, 8:45,16.1,56.2,12.1,12.8
 2004/04/05, 9:00,16.1,56.3,12.2,12.8
 2004/04/05, 9:15,16.6,55.4,12.2,12.8
 2004/04/05, 9:30,16,58.6,13.9,12.9
 2004/04/05, 9:45,16.6,56.1,13.6,12.9
 2004/04/05,10:00,17.1,54.7,13.3,12.9
 2004/04/05,10:15,17.5,53.7,12.9,12.9
 2004/04/05,10:30,18,52.6,12.9,12.9
 2004/04/05,10:45,18.3,52.5,13,12.9
 2004/04/05,11:00,18.6,51.6,13,12.9
 2004/04/05,11:15,18.9,51,13.2,12.9
 2004/04/05,11:30,19.1,50.8,13.3,13
 2004/04/05,11:45,19.3,50.8,13.5,13
 2004/04/05,12:00,19.5,50.8,13.8,13
 2004/04/05,12:15,19.6,51.4,13.9,13.1
 2004/04/05,12:30,20.1,51.3,14.1,13.1
 2004/04/05,12:45,20.6,51.8,14.2,13.1
 2004/04/05,13:00,20.8,52,14.3,13.2
 2004/04/05,13:15,20.7,51.9,14.4,13.2
 2004/04/05,13:30,20.8,52.1,14.5,13.3
 2004/04/05,13:45,20.7,51.3,14.7,13.3
 2004/04/05,14:00,20.7,50.8,14.9,13.4
 2004/04/05,14:15,20.7,50.6,15,13.5
 2004/04/05,14:30,20.6,50.7,15.1,13.5
 2004/04/05,14:45,20.6,50.6,15.2,13
 2004/04/05,15:00,20.6,50.9,15.3,13.1
 2004/04/05,15:15,20.6,50.8,15.5,13.2
 2004/04/05,15:30,20.8,51.3,15.5,13.3
 2004/04/05,15:45,20.9,51.9,15.7,13.4
 2004/04/05,16:00,21,51.7,15.7,13.5
 2004/04/05,16:15,20.7,52.8,15.7,13.6
 2004/04/05,16:30,20.7,52.5,15.7,13.7
 2004/04/05,16:45,20.6,52.8,15.7,13.8
 2004/04/05,17:00,20.3,51.2,16.7,13.9
 2004/04/05,17:15,19.9,52.5,17,14
 2004/04/05,17:30,19.7,53.1,17,14.1
 2004/04/05,17:45,19.5,53.4,16.8,14.1
 2004/04/05,18:00,19.8,51.7,16.8,14.2
 2004/04/05,18:15,20.1,51.2,16.4,14.3
 2004/04/05,18:30,19.4,52.8,16.7,14.3
 2004/04/05,18:45,19.5,54.7,16.8,14.4
 2004/04/05,19:00,19.7,54.5,17.2,14.5
 2004/04/05,19:15,19.7,55.3,16.8,14.5
 2004/04/05,19:30,20.3,55.9,16.6,14.5
 2004/04/05,19:45,20.4,56.2,16.4,14.6
 2004/04/05,20:00,20.6,55.5,16.4,14.6
 2004/04/05,20:15,20.2,56.2,16.3,14.6
 2004/04/05,20:30,20.7,54.5,16.3,14.7
 2004/04/05,20:45,20.7,54.3,16.3,14.7
 2004/04/05,21:00,19.7,53.3,16.6,14.7
 2004/04/05,21:15,19.6,53,16.8,14.7
 2004/04/05,21:30,20,53.6,16.5,14.8
 2004/04/05,21:45,19.9,52.9,16.2,14.8
 2004/04/05,22:00,19.6,53.2,16.1,14.8
 2004/04/05,22:15,19.5,55.7,16.2,14.8
 2004/04/05,22:30,19.3,56.4,16.4,14.8
 2004/04/05,22:45,19.8,57,16,14.8
 2004/04/05,23:00,19.9,56,15.9,14.8
 2004/04/05,23:15,19.9,56.8,15.9,14.8
 2004/04/05,23:30,19.9,58.1,15.8,14.8
 2004/04/05,23:45,19.9,57.3,15.7,14.8
 2004/04/06, 0:00,19.8,55.8,15.6,14.9
 2004/04/06, 0:15,19.7,54.5,15.6,14.9
 2004/04/06, 0:30,19.6,53.7,15.6,14.8
 2004/04/06, 0:45,19.5,53,15.5,14.8
 2004/04/06, 1:00,19.3,52.8,15.3,14.8
 2004/04/06, 1:15,19.2,52.1,15.4,13.7
 2004/04/06, 1:30,19.1,51.9,15.2,13.7
 2004/04/06, 1:45,18.7,52.3,15.1,13.7
 2004/04/06, 2:00,18.3,52.5,15.1,13.7
 2004/04/06, 2:15,18,52.3,15,13.7
 2004/04/06, 2:30,17.9,52.1,15,13.8
 2004/04/06, 2:45,17.7,52.1,14.8,13.8
 2004/04/06, 3:00,17.5,52,14.9,13.8
 2004/04/06, 3:15,17.3,51.9,14.7,13.8
 2004/04/06, 3:30,17.2,51.9,14.6,13.8
 2004/04/06, 3:45,17,51.7,14.5,13.8
 2004/04/06, 4:00,16.8,51.9,14.4,13.8
 2004/04/06, 4:15,16.7,51.6,14.4,13.8
 2004/04/06, 4:30,16.5,51.9,14.2,13.8
 2004/04/06, 4:45,16.4,51.6,14.1,13.7
 2004/04/06, 5:00,16.3,51.8,14.1,13.7
 2004/04/06, 5:15,16.1,51.7,13.9,13.7
 2004/04/06, 5:30,16,51.8,13.8,13.7
 2004/04/06, 5:45,15.9,51.5,13.8,13.7
 2004/04/06, 6:00,15.7,51.6,13.6,13.7
 2004/04/06, 6:15,16.2,51.4,13.5,12.6
 2004/04/06, 6:30,16.4,53.4,13.5,12.6
 2004/04/06, 6:45,16.6,56.3,13.5,12.7
 2004/04/06, 7:00,16.9,56.2,13.5,12.7
 2004/04/06, 7:15,17.1,55.7,13.3,12.7
 2004/04/06, 7:30,17.1,55,13.3,12.7
 2004/04/06, 7:45,17.3,53.8,13.4,12.8
 2004/04/06, 8:00,17.3,53.4,13.3,12.8
 2004/04/06, 8:15,17.1,53.3,13.5,12.8
 2004/04/06, 8:30,17.8,52.1,13.5,12.8
 2004/04/06, 8:45,17.4,53.1,13.4,12.9
 2004/04/06, 9:00,17.2,54.4,13.7,12.9
 2004/04/06, 9:15,17.2,55,13.7,12.7
 2004/04/06, 9:30,17.3,54.9,13.8,12.7
 2004/04/06, 9:45,17.4,55,13.9,12.8
 2004/04/06,10:00,17.6,54.8,14.1,12.9
 2004/04/06,10:15,17.6,55.1,15.6,12.9
 2004/04/06,10:30,17.7,55.1,16.8,13
 2004/04/06,10:45,18.2,52,16.8,13
 2004/04/06,11:00,18.5,50.7,17.2,13.1
 2004/04/06,11:15,18.8,49.6,17.4,13.1
 2004/04/06,11:30,18.7,49.7,17.2,13.2
 2004/04/06,11:45,18.8,49.5,17.6,13.3
 2004/04/06,12:00,18.9,49.5,17.9,12.8
 2004/04/06,12:15,19.2,48.6,18,13
 2004/04/06,12:30,19.6,46.2,18.1,13.1
 2004/04/06,12:45,20,46.2,18.2,13.3
 2004/04/06,13:00,20,46.4,18.3,13.4
 2004/04/06,13:15,20,47.3,18.6,13.5
 2004/04/06,13:30,20.4,47.6,18.7,13.6
 2004/04/06,13:45,20.6,47.9,18.9,13.7
 2004/04/06,14:00,21.3,47.3,18.6,13.8
 2004/04/06,14:15,21.6,47.5,18.8,14
 2004/04/06,14:30,21.5,47.3,19,14.1
 2004/04/06,14:45,21.6,46.7,19.1,14.2
 2004/04/06,15:00,21.5,47.6,19.2,14.3
 2004/04/06,15:15,21.8,47.7,19.2,14.4
 2004/04/06,15:30,21.7,48,19,14.5
 2004/04/06,15:45,22,47.2,19.1,14.6
 2004/04/06,16:00,21.9,46.8,19.1,14.7
 2004/04/06,16:15,21.8,47,19.1,14.8
 2004/04/06,16:30,21.5,47.2,19.2,14.9
 2004/04/06,16:45,21.7,47,19.1,15
 2004/04/06,17:00,21.7,46.7,19,15.1
 2004/04/06,17:15,21.7,46.2,18.8,15.2
 2004/04/06,17:30,21.6,46.4,18.9,15.4
 2004/04/06,17:45,21.7,45.7,18.7,15.5
 2004/04/06,18:00,21.7,47.2,18.7,15.5
 2004/04/06,18:15,21.4,49.3,18.8,15.6
 2004/04/06,18:30,21.7,51.5,18.8,15.7
 2004/04/06,18:45,22,50.2,18.6,15.8
 2004/04/06,19:00,22,51.5,18.7,15.9
 2004/04/06,19:15,22.1,52.2,18.7,15.9
 2004/04/06,19:30,22.2,51.9,18.6,16
 2004/04/06,19:45,22.2,52.3,18.7,16
 2004/04/06,20:00,22.3,51.8,18.6,16.1
 2004/04/06,20:15,22.2,51.7,18.7,16.2
 2004/04/06,20:30,22.3,51.7,18.6,16.2
 2004/04/06,20:45,21.8,51.9,19,16.3
 2004/04/06,21:00,21.7,53,19,16.3
 2004/04/06,21:15,22,53.1,19.1,16.3
 2004/04/06,21:30,21.5,53.5,19.1,15.1
 2004/04/06,21:45,21.3,53.5,19,15.3
 2004/04/06,22:00,21.2,53.8,18.9,15.4
 2004/04/06,22:15,21,53.3,18.8,15.6
 2004/04/06,22:30,20.9,53.1,18.7,15.7
 2004/04/06,22:45,20.7,53.1,18.6,15.7
 2004/04/06,23:00,20.6,53,18.4,15.8
 2004/04/06,23:15,20.5,52.7,18.3,15.9
 2004/04/06,23:30,20.4,52.6,18.3,15.9
 2004/04/06,23:45,20.2,52.5,18.1,15.9
 2004/04/07, 0:00,20.1,52.5,18,16
 2004/04/07, 0:15,20.5,52.6,17.9,16
 2004/04/07, 0:30,20.3,52.4,17.9,16
 2004/04/07, 0:45,19.9,52.8,17.9,16.1
 2004/04/07, 1:00,19.8,52.5,17.8,16.1
 2004/04/07, 1:15,19.7,52.5,17.6,16.1
 2004/04/07, 1:30,19.6,52.4,17.5,13.9
 2004/04/07, 1:45,19.4,52.4,17.5,14.1
 2004/04/07, 2:00,19.4,52.4,17.3,14.2
 2004/04/07, 2:15,19.2,52.4,17.2,14.3
 2004/04/07, 2:30,19.1,52.4,17.1,14.4
 2004/04/07, 2:45,19,52.4,17,14.5
 2004/04/07, 3:00,18.9,52.4,17,14.5
 2004/04/07, 3:15,18.8,52.4,16.9,14.6
 2004/04/07, 3:30,18.7,52.4,16.8,14.7
 2004/04/07, 3:45,18.6,52.5,16.7,14.7
 2004/04/07, 4:00,18.5,52.5,16.7,14.7
 2004/04/07, 4:15,18.4,52.4,16.6,14.8
 2004/04/07, 4:30,18.3,52.4,16.4,14.8
 2004/04/07, 4:45,18.3,52.5,16.4,14.8
 2004/04/07, 5:00,18.2,52.6,16.3,14.9
 2004/04/07, 5:15,18.1,52.6,16.4,14.9
 2004/04/07, 5:30,18,52.3,16.2,14.9
 2004/04/07, 5:45,17.9,52.6,16.1,14.9
 2004/04/07, 6:00,17.8,52.5,16,14.9
 2004/04/07, 6:15,17.8,52.6,16,14.9
 2004/04/07, 6:30,17.7,52.9,15.9,14.9
 2004/04/07, 6:45,17.8,53.1,15.8,15
 2004/04/07, 7:00,18.2,54.5,15.8,15
 2004/04/07, 7:15,18.3,54.7,15.9,15
 2004/04/07, 7:30,18.4,53.9,16.1,14.2
 2004/04/07, 7:45,18.7,56,16.2,14.3
 2004/04/07, 8:00,19,55.3,16.2,14.3
 2004/04/07, 8:15,19.2,55.7,16,14.4
 2004/04/07, 8:30,19,57.2,16.3,14.5
 2004/04/07, 8:45,19.4,56.8,16.2,14.5
 2004/04/07, 9:00,19.8,55.4,16.2,14.6
 2004/04/07, 9:15,19.7,55.7,17.2,14.7
 2004/04/07, 9:30,19.5,57.4,17.6,14.7
 2004/04/07, 9:45,19.6,57.8,17.9,14.8
 2004/04/07,10:00,19.7,57.7,18.2,14.9
 2004/04/07,10:15,19.9,57.6,18.4,14.9
 2004/04/07,10:30,20,57.6,18.7,15
 2004/04/07,10:45,20,58,18.5,15
 2004/04/07,11:00,20.1,57.9,18.4,15.1
 2004/04/07,11:15,20.3,57.8,18.4,15.2
 2004/04/07,11:30,20.2,57.9,18.6,15.3
 2004/04/07,11:45,20.6,57.1,18.8,15.4
 2004/04/07,12:00,20.9,56.8,19.3,15.5
 2004/04/07,12:15,21.1,57.2,19.4,15.5
 2004/04/07,12:30,21.4,59.2,19.7,15.6